TimeCST,TemperatureF,Dew PointF,Humidity,Sea Level PressureIn,VisibilityMPH,Wind Direction,Wind SpeedMPH,Gust SpeedMPH,PrecipitationIn,Events,Conditions,WindDirDegrees,DateUTC
12:15 AM,41.0,41.0,100,30.05,3.0,West,6.9,-,N/A,,Drizzle,270,2013-01-10 06:15:00
12:35 AM,41.0,41.0,100,30.06,5.0,West,6.9,-,N/A,,Drizzle,260,2013-01-10 06:35:00
12:55 AM,41.0,41.0,100,30.05,7.0,West,9.2,-,N/A,,Drizzle,270,2013-01-10 06:55:00
2:15 AM,41.0,39.2,93,30.04,10.0,West,6.9,-,N/A,,Overcast,270,2013-01-10 08:15:00
2:35 AM,39.2,37.4,93,30.03,10.0,WSW,4.6,-,N/A,,Overcast,250,2013-01-10 08:35:00
2:55 AM,39.2,37.4,93,30.02,10.0,West,6.9,-,N/A,,Overcast,260,2013-01-10 08:55:00
3:15 AM,39.2,37.4,93,30.02,10.0,WSW,3.5,-,N/A,,Overcast,250,2013-01-10 09:15:00
3:35 AM,39.2,39.2,100,30.02,10.0,WSW,5.8,-,N/A,,Overcast,250,2013-01-10 09:35:00
3:55 AM,39.2,39.2,100,30.02,10.0,West,6.9,-,N/A,,Overcast,260,2013-01-10 09:55:00
4:15 AM,39.2,39.2,100,30.02,10.0,WSW,3.5,-,N/A,,Overcast,240,2013-01-10 10:15:00
4:35 AM,41.0,39.2,93,30.02,10.0,SW,6.9,-,N/A,,Overcast,220,2013-01-10 10:35:00
4:55 AM,39.2,39.2,100,30.03,4.0,SW,5.8,-,N/A,,Overcast,220,2013-01-10 10:55:00
5:15 AM,41.0,39.2,93,30.02,5.0,SW,6.9,-,N/A,,Overcast,220,2013-01-10 11:15:00
5:35 AM,41.0,39.2,93,30.03,5.0,SW,5.8,-,N/A,,Overcast,220,2013-01-10 11:35:00
5:55 AM,41.0,41.0,100,30.03,5.0,SW,4.6,-,N/A,,Overcast,230,2013-01-10 11:55:00
6:15 AM,41.0,41.0,100,30.04,7.0,SW,4.6,-,N/A,,Overcast,230,2013-01-10 12:15:00
6:35 AM,41.0,41.0,100,30.04,7.0,WSW,6.9,-,N/A,,Overcast,250,2013-01-10 12:35:00
6:55 AM,42.8,41.0,93,30.04,7.0,West,9.2,-,N/A,,Overcast,260,2013-01-10 12:55:00
7:55 AM,42.8,41.0,93,30.06,10.0,WSW,6.9,16.1,N/A,,Mostly Cloudy,240,2013-01-10 13:55:00
8:35 AM,42.8,41.0,93,30.08,10.0,West,10.4,17.3,N/A,,Mostly Cloudy,260,2013-01-10 14:35:00
9:15 AM,42.8,41.0,93,30.09,10.0,West,11.5,19.6,N/A,,Overcast,260,2013-01-10 15:15:00
9:35 AM,44.6,41.0,87,30.09,10.0,West,9.2,-,N/A,,Scattered Clouds,270,2013-01-10 15:35:00
9:55 AM,44.6,41.0,87,30.09,10.0,West,11.5,16.1,N/A,,Scattered Clouds,270,2013-01-10 15:55:00
10:15 AM,44.6,41.0,87,30.09,10.0,West,11.5,17.3,N/A,,Mostly Cloudy,280,2013-01-10 16:15:00
10:35 AM,46.4,41.0,81,30.08,10.0,West,5.8,20.7,N/A,,Mostly Cloudy,280,2013-01-10 16:35:00
10:55 AM,48.2,41.0,76,30.08,10.0,West,15.0,23.0,N/A,,Scattered Clouds,280,2013-01-10 16:55:00
11:15 AM,50.0,41.0,71,30.08,10.0,West,12.7,24.2,N/A,,Clear,270,2013-01-10 17:15:00
11:35 AM,50.0,41.0,71,30.06,10.0,West,15.0,19.6,N/A,,Clear,280,2013-01-10 17:35:00
11:55 AM,51.8,41.0,67,30.05,10.0,West,13.8,21.9,N/A,,Clear,280,2013-01-10 17:55:00
12:15 PM,51.8,41.0,67,30.03,10.0,West,11.5,21.9,N/A,,Clear,270,2013-01-10 18:15:00
12:35 PM,53.6,41.0,62,30.02,10.0,West,12.7,17.3,N/A,,Clear,270,2013-01-10 18:35:00
12:55 PM,55.4,41.0,58,30.01,10.0,West,11.5,17.3,N/A,,Clear,260,2013-01-10 18:55:00
1:15 PM,57.2,41.0,55,30.00,10.0,West,12.7,18.4,N/A,,Clear,270,2013-01-10 19:15:00
1:35 PM,59.0,41.0,51,30.00,10.0,West,13.8,17.3,N/A,,Clear,270,2013-01-10 19:35:00
1:55 PM,59.0,37.4,45,29.99,10.0,West,16.1,20.7,N/A,,Clear,270,2013-01-10 19:55:00
2:15 PM,59.0,37.4,45,29.98,10.0,WNW,12.7,17.3,N/A,,Clear,290,2013-01-10 20:15:00
2:35 PM,59.0,35.6,42,29.98,10.0,West,13.8,18.4,N/A,,Clear,270,2013-01-10 20:35:00
2:55 PM,59.0,37.4,45,29.99,10.0,WSW,11.5,17.3,N/A,,Clear,250,2013-01-10 20:55:00
3:15 PM,60.8,37.4,42,29.99,10.0,West,10.4,18.4,N/A,,Clear,270,2013-01-10 21:15:00
3:35 PM,60.8,35.6,39,29.99,10.0,West,9.2,17.3,N/A,,Clear,260,2013-01-10 21:35:00
3:55 PM,60.8,35.6,39,29.99,10.0,WSW,11.5,-,N/A,,Clear,250,2013-01-10 21:55:00
4:15 PM,62.6,35.6,37,29.99,10.0,WSW,6.9,-,N/A,,Clear,250,2013-01-10 22:15:00
4:35 PM,60.8,35.6,39,29.99,10.0,WSW,5.8,-,N/A,,Clear,250,2013-01-10 22:35:00
4:55 PM,59.0,37.4,45,29.99,10.0,SSW,4.6,-,N/A,,Clear,210,2013-01-10 22:55:00
5:15 PM,59.0,39.2,48,29.99,10.0,SSW,4.6,-,N/A,,Clear,210,2013-01-10 23:15:00
5:35 PM,59.0,41.0,51,29.99,10.0,South,5.8,-,N/A,,Clear,190,2013-01-10 23:35:00
5:55 PM,57.2,41.0,55,29.98,10.0,South,6.9,-,N/A,,Clear,180,2013-01-10 23:55:00
6:15 PM,55.4,42.8,63,29.99,10.0,SSW,5.8,-,N/A,,Clear,200,2013-01-11 00:15:00
6:35 PM,53.6,42.8,67,29.99,10.0,SSW,6.9,-,N/A,,Clear,200,2013-01-11 00:35:00
6:55 PM,53.6,42.8,67,29.99,10.0,SSW,6.9,-,N/A,,Clear,200,2013-01-11 00:55:00
7:15 PM,51.8,42.8,71,29.99,10.0,SSW,9.2,-,N/A,,Clear,200,2013-01-11 01:15:00
7:35 PM,53.6,42.8,67,29.99,10.0,South,6.9,-,N/A,,Clear,190,2013-01-11 01:35:00
7:55 PM,51.8,41.0,67,29.98,10.0,SW,8.1,-,N/A,,Clear,220,2013-01-11 01:55:00
8:15 PM,53.6,41.0,62,29.99,10.0,SSW,8.1,-,N/A,,Clear,200,2013-01-11 02:15:00
8:35 PM,51.8,41.0,67,29.99,10.0,SSW,8.1,-,N/A,,Clear,200,2013-01-11 02:35:00
8:55 PM,50.0,41.0,71,29.98,10.0,SSW,10.4,-,N/A,,Clear,210,2013-01-11 02:55:00
9:15 PM,50.0,41.0,71,29.99,10.0,SSW,9.2,-,N/A,,Clear,210,2013-01-11 03:15:00
9:35 PM,50.0,41.0,71,29.98,10.0,SSW,5.8,-,N/A,,Clear,200,2013-01-11 03:35:00
9:55 PM,48.2,41.0,76,29.99,10.0,SSW,4.6,-,N/A,,Clear,200,2013-01-11 03:55:00
10:15 PM,48.2,41.0,76,29.99,10.0,SSW,6.9,-,N/A,,Clear,210,2013-01-11 04:15:00
10:35 PM,48.2,41.0,76,30.00,10.0,SW,4.6,-,N/A,,Clear,220,2013-01-11 04:35:00
11:15 PM,46.4,41.0,81,30.00,10.0,SSW,5.8,-,N/A,,Clear,200,2013-01-11 05:15:00
11:35 PM,46.4,41.0,81,30.00,10.0,SSW,5.8,-,N/A,,Clear,210,2013-01-11 05:35:00
11:55 PM,46.4,39.2,76,30.00,10.0,South,5.8,-,N/A,,Clear,190,2013-01-11 05:55:00